KE0MVE Weather Reports


time (UTC)temp
C
wind
direction
speed
KPH
gust
KPH
rain 1hr
cm
rain 24hr
cm
rain mn
cm
humidity
%
barometer
mb
20220525014531 17 97 1.6 6.4 0.00 0.00 0.00 39 988.1
20220525013026 17 64 0.0 6.4 0.00 0.00 0.00 38 988.1
20220525011521 17 6 0.0 12.9 0.00 0.00 0.00 36 988.0
20220525010019 18 72 3.2 11.3 0.00 0.00 0.00 35 987.5
20220525004523 18 62 6.4 14.5 0.00 0.00 0.00 35 987.4
20220525003001 18 108 1.6 9.7 0.00 0.00 0.00 36 987.4
20220525001637 18 53 3.2 12.9 0.00 0.00 0.00 35 987.3
20220525000107 19 55 1.6 11.3 0.00 0.00 0.00 35 987.4
20220524234557 19 123 3.2 11.3 0.00 0.00 0.00 34 987.4
20220524233111 19 87 3.2 11.3 0.00 0.00 0.00 32 987.5
20220524231617 20 77 1.6 9.7 0.00 0.00 0.00 31 987.6
20220524230055 20 117 3.2 16.1 0.00 0.00 0.00 31 987.7
20220524224556 20 89 4.8 19.3 0.00 0.00 0.00 32 987.7
20220524223215 20 97 3.2 12.9 0.00 0.00 0.00 32 987.7
20220524221553 20 76 1.6 14.5 0.00 0.00 0.00 31 987.7
20220524220051 20 39 4.8 14.5 0.00 0.00 0.00 32 987.8
20220524214552 20 103 4.8 16.1 0.00 0.00 0.00 31 987.8
20220524213049 20 113 3.2 12.9 0.00 0.00 0.00 31 987.8
20220524211555 20 238 3.2 11.3 0.00 0.00 0.00 32 987.9
20220524210010 20 113 3.2 17.7 0.00 0.00 0.00 31 988.0
20220524204507 20 101 6.4 17.7 0.00 0.00 0.00 31 988.3
20220524203005 20 120 1.6 16.1 0.00 0.00 0.00 31 988.5
20220524201504 20 115 4.8 12.9 0.00 0.00 0.00 29 988.5
20220524200058 20 250 3.2 22.5 0.00 0.00 0.00 32 988.6
20220524194549 20 137 4.8 17.7 0.00 0.00 0.00 33 988.8
20220524193047 20 103 4.8 19.3 0.00 0.00 0.00 35 988.9
20220524191546 20 145 3.2 12.9 0.00 0.00 0.00 38 988.9
20220524190042 19 90 3.2 14.5 0.00 0.00 0.00 36 989.2
20220524184539 19 131 3.2 14.5 0.00 0.00 0.00 37 989.5
20220524183046 19 103 4.8 19.3 0.00 0.00 0.00 36 989.5
20220524181538 19 77 4.8 20.9 0.00 0.00 0.00 38 989.8
20220524180023 19 108 6.4 16.1 0.00 0.00 0.00 37 989.9
20220524174522 19 98 4.8 14.5 0.00 0.00 0.00 38 990.0
20220524173029 19 110 3.2 11.3 0.00 0.00 0.00 40 990.1
20220524171527 19 79 3.2 12.9 0.00 0.00 0.00 38 990.3
20220524170015 18 24 1.6 12.9 0.00 0.00 0.00 40 990.3
20220524164521 18 150 4.8 14.5 0.00 0.00 0.00 39 990.4
20220524163021 18 141 3.2 11.3 0.00 0.00 0.00 40 990.5
20220524161517 18 326 1.6 11.3 0.00 0.00 0.00 38 990.5
20220524160059 17 98 6.4 12.9 0.00 0.00 0.00 40 990.6
20220524154605 18 77 6.4 16.1 0.00 0.00 0.00 41 990.7
20220524153100 17 49 0.0 6.4 0.00 0.00 0.00 43 991.0
20220524151605 17 124 3.2 11.3 0.00 0.00 0.00 45 991.1
20220524150056 16 111 1.6 12.9 0.00 0.00 0.00 48 991.1
20220524144556 16 92 1.6 12.9 0.00 0.00 0.00 47 991.2
20220524143109 15 129 1.6 9.7 0.00 0.00 0.00 50 991.2
20220524141607 15 61 0.0 8.0 0.00 0.00 0.00 53 991.4
20220524140112 14 84 1.6 11.3 0.00 0.00 0.00 53 991.5
20220524134655 13 90 0.0 6.4 0.00 0.00 0.00 57 991.5
20220524133037 13 105 1.6 8.0 0.00 0.00 0.00 56 991.5
20220524131536 12 115 1.6 8.0 0.00 0.00 0.00 59 991.5
20220524130025 12 119 0.0 4.8 0.00 0.00 0.00 62 991.2
20220524124524 11 131 0.0 3.2 0.00 0.00 0.00 66 991.7
20220524123032 11 101 0.0 3.2 0.00 0.00 0.00 69 991.6
20220524121524 10 115 0.0 1.6 0.00 0.00 0.00 73 991.4
20220524120030 10 116 0.0 0.0 0.00 0.00 0.00 76 990.9
20220524114531 9 121 0.0 0.0 0.00 0.00 0.00 78 991.1
20220524113021 8 121 0.0 0.0 0.00 0.00 0.00 79 991.0
20220524111536 8 122 0.0 0.0 0.00 0.00 0.00 79 990.6
20220524110009 8 122 0.0 0.0 0.00 0.00 0.00 78 991.1
20220524104509 8 122 0.0 0.0 0.00 0.00 0.00 78 991.2
20220524103009 8 122 0.0 0.0 0.00 0.00 0.00 78 990.6
20220524101508 8 122 0.0 0.0 0.00 0.00 0.00 79 991.1
20220524100007 8 122 0.0 0.0 0.00 0.00 0.00 81 990.9
20220524094508 8 122 0.0 0.0 0.00 0.00 0.00 80 990.4
20220524093006 8 122 0.0 0.0 0.00 0.00 0.00 78 990.9
20220524091503 8 122 0.0 0.0 0.00 0.00 0.00 77 990.5
20220524090052 8 122 0.0 0.0 0.00 0.00 0.00 77 990.5
20220524084550 8 122 0.0 0.0 0.00 0.00 0.00 76 991.0
20220524083052 8 122 0.0 0.0 0.00 0.00 0.00 75 990.7
20220524081548 8 122 0.0 0.0 0.00 0.00 0.00 74 990.6
20220524080106 8 122 0.0 0.0 0.00 0.00 0.00 73 991.1
20220524074545 8 122 0.0 0.0 0.00 0.00 0.00 71 990.6
20220524073054 9 122 0.0 0.0 0.00 0.00 0.00 69 990.7
20220524071558 9 122 0.0 0.0 0.00 0.00 0.00 67 991.2
20220524070025 10 122 0.0 0.0 0.00 0.00 0.00 61 990.9
20220524064541 10 122 0.0 0.0 0.00 0.00 0.00 60 990.5
20220524063024 10 122 0.0 0.0 0.00 0.00 0.00 59 990.9
20220524061526 10 122 0.0 0.0 0.00 0.00 0.00 58 990.9
20220524060023 11 122 0.0 1.6 0.00 0.00 0.00 58 990.7
20220524054533 10 102 0.0 0.0 0.00 0.00 0.00 60 990.5
20220524053022 10 101 0.0 1.6 0.00 0.00 0.00 62 990.9
20220524051535 10 102 0.0 1.6 0.00 0.00 0.00 64 991.1
20220524050021 10 98 0.0 0.0 0.00 0.00 0.00 63 990.6
20220524044513 10 98 0.0 0.0 0.00 0.00 0.00 61 990.6
20220524043003 11 99 0.0 0.0 0.00 0.00 0.00 59 991.0
20220524041501 11 98 0.0 0.0 0.00 0.00 0.00 56 991.1
20220524040057 12 98 0.0 0.0 0.00 0.00 0.00 54 991.2
20220524034555 12 98 0.0 0.0 0.00 0.00 0.00 53 991.1
20220524033054 12 98 0.0 0.0 0.00 0.00 0.00 51 991.1
20220524031552 12 99 0.0 1.6 0.00 0.00 0.00 50 991.0
20220524030049 13 133 0.0 0.0 0.00 0.00 0.00 48 990.9
20220524024535 13 105 0.0 1.6 0.00 0.00 0.00 47 990.9
20220524023040 13 104 0.0 3.2 0.00 0.00 0.00 45 990.8
20220524021531 14 98 0.0 0.0 0.00 0.00 0.00 44 990.7
20220524020027 15 104 0.0 1.6 0.00 0.00 0.00 43 990.7